Flag for U.S.A. Weather past 2 weeks in Palm Springs, California, U.S.A.

Now
90 °F

Sunny.


Feels Like: 86 °F
Forecast: 65 / 92 °F
Wind: 6 mph from North

Location: Palm Springs Regional Airport

Current Time: Apr 18, 2015 at 2:09:04 PM

Latest Report: Apr 18, 2015 at 12:53 PM


Visibility: 10 mi

Pressure: 29.89 "Hg

Humidity: 6%

Dew point: 14 °F

Location of Palm SpringsLocation

Historic Weather in Palm Springs — Graph

°F

Palm Springs temperature yesterday

Maximum temperature yesterday: 90 °F (at 3:53 PM)
Minimum temperature yesterday: 60 °F (at 6:53 AM)
Average temperature yesterday: 76 °F

Past Weeks' High & Low Weather Summary

 TemperatureHumidityPressure
High93 °F (Apr 13, 3:53 PM)60% (Apr 11, 6:53 AM)30.09 "Hg (Apr 11, 6:53 AM)
Low52 °F (Apr 7, 4:53 AM)4% (Apr 3, 3:53 PM)29.68 "Hg (Apr 5, 3:53 PM)
Average73 °F22%29.91 "Hg
* Reported Apr 3 12:53 PM — Apr 18 12:53 PM, Palm Springs, Weather by CustomWeather, © 2015

Note: Actual official high and low records may vary slightly from our data, if they occured in-between our weather recording intervals... More about our weather records

Advertising

Palm Springs weather history for previous 24 hours

 ConditionsComfort  
Time TempWeatherWind HumidityBarometerVisibility
12:53 PM
Sat, Apr 18
90 °FSunny.6 mph6%29.89 "Hg10 mi
11:53 AM88 °FSunny.6 mph6%29.92 "Hg10 mi
10:53 AM87 °FSunny.3 mph7%29.94 "Hg10 mi
9:53 AM84 °FSunny.No wind7%29.94 "Hg10 mi
8:53 AM77 °FSunny.No wind14%29.95 "Hg10 mi
7:53 AM70 °FSunny.No wind20%29.95 "Hg10 mi
6:53 AM65 °FClear.3 mph25%29.94 "Hg10 mi
5:53 AM61 °FClear.3 mph35%29.93 "Hg10 mi
4:53 AM66 °FClear.3 mph25%29.92 "Hg10 mi
3:53 AM66 °FClear.3 mph23%29.92 "Hg10 mi
2:53 AM66 °FClear.3 mph27%29.94 "Hg10 mi
1:53 AM69 °FClear.6 mph21%29.95 "Hg10 mi
12:53 AM72 °FClear.No wind18%29.96 "Hg10 mi
11:53 PM
Fri, Apr 17
71 °FClear.5 mph19%29.96 "Hg10 mi
10:53 PM75 °FClear.3 mph15%29.96 "Hg10 mi
9:53 PM78 °FClear.8 mph12%29.95 "Hg10 mi
8:53 PM79 °FClear.No wind11%29.93 "Hg10 mi
7:53 PM82 °FSunny.13 mph9%29.90 "Hg10 mi
6:53 PM85 °FSunny.12 mph9%29.88 "Hg10 mi
5:53 PM89 °FSunny.5 mph5%29.86 "Hg10 mi
4:53 PM89 °FSunny.3 mph6%29.86 "Hg10 mi
3:53 PM90 °FSunny.6 mph5%29.88 "Hg10 mi
2:53 PM89 °FSunny.No wind5%29.91 "Hg10 mi
Weather by CustomWeather, © 2015

See weather overviewHow to use our weather pages